Date Time,Air Temp,Sky Temp,Clarity,Light Level,Rain Sensor,Readings
2013-07-08 00:00:16,28.1,-1.0,29.1,0.0,2.3,111
2013-07-08 00:05:17,28.0,-1.1,29.1,0.0,2.3,112
2013-07-08 00:10:17,27.9,-1.4,29.3,0.0,2.3,111
2013-07-08 00:15:17,27.8,-1.6,29.4,0.0,2.3,112
2013-07-08 00:20:17,27.7,-1.6,29.3,0.0,2.4,112
2013-07-08 00:25:17,27.7,-1.5,29.2,0.0,2.3,111
2013-07-08 00:30:17,27.7,-1.6,29.2,0.0,2.3,112
2013-07-08 00:35:17,27.6,-1.9,29.5,0.0,2.3,111
2013-07-08 00:40:17,27.5,-1.9,29.4,0.0,2.3,112
2013-07-08 00:45:17,27.4,-1.9,29.3,0.0,2.3,111
2013-07-08 00:50:17,27.3,-2.0,29.3,0.0,2.3,112
2013-07-08 00:55:17,27.3,-2.0,29.2,0.0,2.3,111
2013-07-08 01:00:17,27.2,-2.0,29.2,0.0,2.3,111
2013-07-08 01:05:17,27.2,-2.1,29.2,0.0,2.3,112
2013-07-08 01:10:17,27.1,-2.3,29.4,0.0,2.3,111
2013-07-08 01:15:17,27.0,-2.7,29.7,0.0,2.3,112
2013-07-08 01:20:17,27.0,-2.8,29.8,0.0,2.3,112
2013-07-08 01:25:17,26.9,-2.9,29.9,0.0,2.3,112
2013-07-08 01:30:17,27.0,-2.9,29.9,0.0,2.3,111
2013-07-08 01:35:17,26.9,-2.9,29.9,0.0,2.3,112
2013-07-08 01:40:17,26.9,-3.0,29.9,0.0,2.3,113
2013-07-08 01:45:17,26.9,-3.1,30.0,0.0,2.3,112
2013-07-08 01:50:17,26.8,-3.1,29.9,0.0,2.3,112
2013-07-08 01:55:17,26.8,-3.0,29.8,0.0,2.3,112
2013-07-08 02:00:17,26.8,-3.1,29.8,0.0,2.3,112
2013-07-08 02:05:17,26.7,-3.0,29.8,0.0,2.3,113
2013-07-08 02:10:17,26.7,-3.2,29.9,0.0,2.3,112
2013-07-08 02:15:17,26.7,-3.5,30.1,0.0,2.3,111
2013-07-08 02:20:17,26.6,-3.7,30.3,0.0,2.3,112
2013-07-08 02:25:17,26.5,-3.7,30.3,0.0,2.3,112
2013-07-08 02:30:17,26.5,-3.7,30.2,0.0,2.3,111
2013-07-08 02:35:17,26.4,-4.0,30.4,0.0,2.3,112
2013-07-08 02:40:17,26.4,-4.0,30.4,0.0,2.3,112
2013-07-08 02:45:17,26.3,-4.2,30.5,0.0,2.3,112
2013-07-08 02:50:17,26.3,-4.4,30.7,0.0,2.3,112
2013-07-08 02:55:17,26.3,-4.6,30.9,0.0,2.3,112
2013-07-08 03:00:17,26.3,-4.8,31.0,0.0,2.3,112
2013-07-08 03:05:17,26.3,-4.9,31.2,0.0,2.3,111
2013-07-08 03:10:17,26.3,-4.9,31.2,0.0,2.3,111
2013-07-08 03:15:17,26.3,-5.1,31.3,0.0,2.3,112
2013-07-08 03:20:17,26.3,-5.1,31.4,0.0,2.3,111
2013-07-08 03:25:17,26.3,-5.0,31.3,0.1,2.3,111
2013-07-08 03:30:17,26.4,-4.6,31.0,0.1,2.3,112
2013-07-08 03:35:17,26.4,-4.3,30.7,0.2,2.3,112
2013-07-08 03:40:17,26.5,-4.0,30.5,0.2,2.3,111
2013-07-08 03:45:17,26.5,-4.0,30.5,0.3,2.3,112
2013-07-08 03:50:17,26.4,-4.2,30.6,0.5,2.3,112
2013-07-08 03:55:17,26.3,-4.6,30.9,0.7,2.3,112
2013-07-08 04:00:17,26.2,-5.0,31.3,1.1,2.4,112
2013-07-08 04:05:17,26.1,-5.1,31.2,1.7,2.6,111
2013-07-08 04:10:17,26.1,-5.1,31.2,2.6,2.6,111
2013-07-08 04:15:17,26.1,-5.2,31.3,4.1,2.6,111
2013-07-08 04:20:17,26.0,-5.3,31.3,6.4,2.5,112
2013-07-08 04:25:17,26.0,-5.4,31.4,9.5,2.5,111
2013-07-08 04:30:17,26.0,-5.5,31.5,13.4,2.5,111
2013-07-08 04:35:17,25.9,-5.7,31.6,17.6,2.5,112
2013-07-08 04:40:17,25.9,-5.8,31.7,21.6,2.5,111
2013-07-08 04:45:17,25.9,-5.9,31.8,25.0,2.5,111
2013-07-08 04:50:17,25.9,-6.1,32.0,27.4,2.5,111
2013-07-08 04:55:17,25.8,-6.1,31.9,28.9,2.4,112
2013-07-08 05:00:17,25.8,-6.2,32.0,29.9,2.4,111
2013-07-08 05:05:17,25.7,-6.3,32.0,30.6,2.3,112
2013-07-08 05:10:17,25.7,-6.5,32.2,31.0,2.3,112
2013-07-08 05:15:17,25.8,-6.4,32.2,31.3,2.3,112
2013-07-08 05:20:17,25.7,-6.5,32.2,31.5,2.3,112
2013-07-08 05:25:17,25.7,-6.5,32.2,31.7,2.3,112
2013-07-08 05:30:17,25.7,-6.6,32.3,31.8,2.3,112
2013-07-08 05:35:17,25.8,-6.6,32.4,31.9,2.3,112
2013-07-08 05:40:17,25.8,-6.5,32.3,32.0,2.3,112
2013-07-08 05:45:17,25.9,-6.6,32.5,32.0,2.3,112
2013-07-08 05:50:17,25.9,-6.7,32.6,32.0,2.4,112
2013-07-08 05:55:17,26.0,-6.7,32.7,32.1,2.5,112
2013-07-08 06:00:17,26.1,-6.6,32.7,32.1,2.5,112
2013-07-08 06:05:17,26.1,-6.7,32.8,32.1,2.6,112
2013-07-08 06:10:17,26.3,-6.5,32.8,32.2,2.4,112
2013-07-08 06:15:17,26.5,-6.5,33.0,32.2,2.3,112
2013-07-08 06:20:17,26.6,-6.5,33.1,32.2,2.3,112
2013-07-08 06:25:17,26.7,-6.3,33.0,32.2,2.3,111
2013-07-08 06:30:17,26.8,-6.1,32.9,32.2,2.3,112
2013-07-08 06:35:17,26.9,-6.1,33.0,32.2,2.3,112
2013-07-08 06:40:17,27.0,-5.9,32.9,32.2,2.3,111
2013-07-08 06:45:17,27.2,-5.9,33.1,32.3,2.3,112
2013-07-08 06:50:17,27.3,-5.7,33.0,32.3,2.3,111
2013-07-08 06:55:17,27.4,-5.9,33.4,32.3,2.3,111
2013-07-08 07:00:17,27.4,-5.9,33.3,32.3,2.3,111
2013-07-08 07:05:17,27.5,-5.8,33.3,32.3,2.3,112
2013-07-08 07:10:17,27.8,-5.6,33.4,32.3,2.3,111
2013-07-08 07:15:17,27.9,-5.6,33.5,32.3,2.3,112
2013-07-08 07:20:17,28.0,-5.6,33.6,32.3,2.3,111
2013-07-08 07:25:17,28.1,-5.5,33.6,32.3,2.3,111
2013-07-08 07:30:17,28.1,-5.6,33.7,32.3,2.3,112
2013-07-08 07:35:17,28.2,-5.0,33.2,32.3,2.3,112
2013-07-08 07:40:17,28.3,-5.0,33.3,32.3,2.3,111
2013-07-08 07:45:17,28.3,-5.2,33.5,32.3,2.3,111
2013-07-08 07:50:17,28.4,-5.0,33.4,32.3,2.3,112
2013-07-08 07:55:17,28.5,-5.0,33.4,32.3,2.3,111
2013-07-08 08:00:17,28.5,-4.7,33.2,32.3,2.3,112
2013-07-08 08:05:17,28.6,-4.4,33.0,32.3,2.3,112
2013-07-08 08:10:17,28.5,-4.3,32.9,32.3,2.3,112
2013-07-08 08:15:17,28.4,-4.4,32.8,32.3,2.3,112
2013-07-08 08:20:17,28.3,-4.0,32.3,32.3,2.3,111
2013-07-08 08:25:17,28.3,-3.8,32.1,32.3,2.3,112
2013-07-08 08:30:17,28.4,-4.0,32.4,32.4,2.3,112
2013-07-08 08:35:17,28.5,-3.8,32.3,32.4,2.3,112
2013-07-08 08:40:17,28.7,-3.7,32.4,32.4,2.3,111
2013-07-08 08:45:17,28.9,-3.4,32.3,32.4,2.3,112
2013-07-08 08:50:17,29.0,-2.9,31.9,32.4,2.3,112
2013-07-08 08:55:17,29.2,-3.1,32.2,32.4,2.3,112
2013-07-08 09:00:17,29.3,-3.2,32.5,32.4,2.3,112
2013-07-08 09:05:17,29.3,-3.1,32.4,32.4,2.3,112
2013-07-08 09:10:17,29.3,-2.9,32.2,32.4,2.3,112
2013-07-08 09:15:17,29.4,-2.3,31.7,32.4,2.3,111
2013-07-08 09:20:17,29.8,-2.0,31.8,32.4,2.3,112
2013-07-08 09:25:17,30.4,-1.5,31.9,32.5,2.3,111
2013-07-08 09:30:17,30.8,-1.6,32.4,32.5,2.3,112
2013-07-08 09:35:17,31.1,-1.2,32.3,32.5,2.3,111
2013-07-08 09:40:17,31.4,-0.9,32.3,32.5,2.3,112
2013-07-08 09:45:17,31.6,-0.7,32.3,32.5,2.3,112
2013-07-08 09:50:17,31.3,-0.5,31.8,32.5,1.7,112
2013-07-08 09:55:17,32.0,-0.4,32.4,32.5,1.3,112
2013-07-08 10:00:17,32.2,-0.1,32.3,32.5,1.7,112
2013-07-08 10:05:17,32.3,0.4,31.9,32.5,1.3,111
2013-07-08 10:10:17,32.7,1.4,31.3,32.5,1.4,111
2013-07-08 10:15:17,32.9,1.6,31.3,32.5,1.2,111
2013-07-08 10:20:17,33.0,1.5,31.5,32.5,1.2,111
2013-07-08 10:25:17,33.2,2.0,31.2,32.5,1.2,112
2013-07-08 10:30:17,33.5,2.0,31.5,32.6,1.4,111
2013-07-08 10:35:17,33.7,2.0,31.8,32.6,1.5,111
2013-07-08 10:40:17,33.9,2.0,31.8,32.6,1.5,111
2013-07-08 10:45:17,33.9,2.0,31.9,32.6,1.6,111
2013-07-08 10:50:17,33.5,2.9,30.6,32.6,1.7,111
2013-07-08 10:55:17,34.3,2.7,31.6,32.6,1.8,111
2013-07-08 11:00:17,34.5,3.4,31.1,32.6,1.8,112
2013-07-08 11:05:17,34.9,3.4,31.5,32.6,1.9,111
2013-07-08 11:10:17,34.9,3.6,31.3,32.6,2.0,111
2013-07-08 11:15:17,34.9,3.8,31.1,32.6,2.0,112
2013-07-08 11:20:17,35.1,4.6,30.5,32.6,2.1,111
2013-07-08 11:25:17,35.5,4.1,31.4,32.6,2.1,112
2013-07-08 11:30:17,35.8,5.3,30.4,32.6,2.4,111
2013-07-08 11:35:17,36.3,5.0,31.3,32.6,2.4,112
2013-07-08 11:40:17,36.4,5.8,30.6,32.6,2.4,111
2013-07-08 11:45:17,36.9,5.8,31.0,32.6,2.6,112
2013-07-08 11:50:17,37.1,5.3,31.8,32.6,2.8,111
2013-07-08 11:55:17,37.1,6.0,31.1,32.6,2.8,111
2013-07-08 12:00:17,37.3,6.2,31.1,32.6,2.8,112
2013-07-08 12:05:17,36.7,6.1,30.6,32.6,2.8,112
2013-07-08 12:10:17,37.5,6.6,30.9,32.6,2.8,111
2013-07-08 12:15:17,37.7,6.4,31.2,32.6,2.7,112
2013-07-08 12:20:17,37.8,6.5,31.3,32.6,2.4,111
2013-07-08 12:25:17,37.9,6.7,31.2,32.6,2.4,112
2013-07-08 12:30:17,38.0,7.5,30.5,32.6,2.4,112
2013-07-08 12:35:17,38.3,7.0,31.3,32.6,2.4,111
2013-07-08 12:40:17,38.7,7.9,30.8,32.6,2.4,112
2013-07-08 12:45:17,39.0,8.3,30.7,32.6,2.4,111
2013-07-08 12:50:17,39.3,7.8,31.5,32.6,2.4,112
2013-07-08 12:55:17,39.5,9.1,30.4,32.6,2.4,111
2013-07-08 13:00:17,39.8,7.7,32.1,32.6,2.4,112
2013-07-08 13:05:17,39.5,8.3,31.2,32.6,2.4,111
2013-07-08 13:10:17,39.4,7.9,31.4,32.6,2.4,112
2013-07-08 13:15:17,38.5,8.9,29.6,32.6,2.4,111
2013-07-08 13:20:17,39.7,9.2,30.5,32.6,2.4,111
2013-07-08 13:25:17,39.8,8.2,31.6,32.6,2.4,111
2013-07-08 13:30:17,39.6,8.9,30.7,32.6,2.4,112
2013-07-08 13:35:17,39.8,10.0,29.8,32.6,2.4,111
2013-07-08 13:40:17,40.3,8.5,31.8,32.6,2.4,112
2013-07-08 13:45:17,40.0,8.9,31.2,32.6,2.4,112
2013-07-08 13:50:17,40.1,8.9,31.2,32.6,2.4,111
2013-07-08 13:55:17,40.1,10.3,29.8,32.6,2.4,112
2013-07-08 14:00:17,40.5,8.8,31.7,32.6,2.4,111
2013-07-08 14:05:17,40.4,9.3,31.1,32.6,2.4,111
2013-07-08 14:10:17,40.4,10.3,30.1,32.6,2.4,111
2013-07-08 14:15:17,40.9,9.8,31.1,32.6,2.4,112
2013-07-08 14:20:17,40.9,10.0,30.8,32.6,2.4,111
2013-07-08 14:25:17,40.7,10.2,30.5,32.6,2.4,112
2013-07-08 14:30:17,40.8,10.0,30.8,32.6,2.4,111
2013-07-08 14:35:17,40.8,10.1,30.8,32.6,2.4,112
2013-07-08 14:40:17,41.0,11.1,29.9,32.6,2.4,111
2013-07-08 14:45:17,41.2,10.6,30.6,32.6,2.4,112
2013-07-08 14:50:18,41.3,11.0,30.2,32.6,2.4,111
2013-07-08 14:55:18,41.3,10.6,30.7,32.6,2.4,112
2013-07-08 15:00:18,41.5,11.0,30.5,32.6,2.4,111
2013-07-08 15:05:18,41.9,11.3,30.6,32.6,2.4,112
2013-07-08 15:10:18,41.9,11.2,30.8,32.6,2.4,111
2013-07-08 15:15:18,41.1,11.4,29.7,32.6,2.4,111
2013-07-08 15:20:18,42.1,11.0,31.1,32.6,2.4,111
2013-07-08 15:25:18,41.9,11.2,30.8,32.6,2.4,112
2013-07-08 15:30:18,41.9,11.5,30.4,32.6,2.4,111
2013-07-08 15:35:18,42.2,11.4,30.7,32.6,2.4,112
2013-07-08 15:40:18,42.1,10.2,31.9,32.6,2.4,111
2013-07-08 15:45:18,41.4,11.1,30.3,32.6,2.4,111
2013-07-08 15:50:18,41.3,11.0,30.3,32.6,2.4,112
2013-07-08 15:55:18,41.2,10.9,30.3,32.6,2.4,111
2013-07-08 16:00:18,41.3,11.1,30.1,32.6,2.4,111
2013-07-08 16:05:18,41.4,11.1,30.3,32.6,2.4,111
2013-07-08 16:10:18,41.2,10.1,31.1,32.6,2.4,112
2013-07-08 16:15:18,40.9,10.7,30.2,32.6,2.4,111
2013-07-08 16:20:18,40.9,11.0,30.0,32.6,2.4,112
2013-07-08 16:25:18,41.2,11.5,29.7,32.6,2.4,111
2013-07-08 16:30:18,41.5,12.0,29.5,32.6,2.4,111
2013-07-08 16:35:18,41.8,11.6,30.1,32.6,2.4,112
2013-07-08 16:40:18,41.6,11.6,30.0,32.6,2.4,111
2013-07-08 16:45:18,41.7,12.0,29.7,32.6,2.4,111
2013-07-08 16:50:18,41.9,11.8,30.0,32.6,2.4,112
2013-07-08 16:55:18,41.8,11.4,30.4,32.6,2.4,111
2013-07-08 17:00:18,41.7,12.0,29.7,32.6,2.4,111
2013-07-08 17:05:18,41.9,11.7,30.2,32.6,2.4,112
2013-07-08 17:10:18,41.8,11.9,29.9,32.6,2.4,111
2013-07-08 17:15:18,41.7,12.2,29.5,32.6,2.4,112
2013-07-08 17:20:18,42.0,12.1,29.9,32.6,2.4,111
2013-07-08 17:25:18,42.2,12.3,29.9,32.6,2.4,112
2013-07-08 17:30:18,42.1,11.5,30.6,32.6,2.4,111
2013-07-08 17:35:18,41.9,11.8,30.0,32.6,2.4,111
2013-07-08 17:40:18,41.5,11.7,29.8,32.6,2.4,112
2013-07-08 17:45:18,41.5,11.7,29.7,32.6,2.4,111
2013-07-08 17:50:18,41.3,11.6,29.7,32.6,2.4,111
2013-07-08 17:55:18,40.8,11.4,29.4,32.6,2.4,112
2013-07-08 18:00:18,40.6,11.5,29.1,32.6,2.4,111
2013-07-08 18:05:18,40.5,12.0,28.5,32.6,2.4,111
2013-07-08 18:10:18,40.7,11.6,29.1,32.6,2.4,112
2013-07-08 18:15:18,40.8,12.0,28.8,32.6,2.4,111
2013-07-08 18:20:18,41.0,11.8,29.2,32.6,2.4,112
2013-07-08 18:25:18,41.0,11.1,30.0,32.6,2.4,111
2013-07-08 18:30:18,39.9,11.5,28.4,32.6,2.4,111
2013-07-08 18:35:18,40.4,11.2,29.2,32.6,2.4,112
2013-07-08 18:40:18,40.2,11.2,29.0,32.6,2.4,111
2013-07-08 18:45:18,39.9,10.7,29.2,32.6,2.4,111
2013-07-08 18:50:18,39.4,10.8,28.7,32.6,2.4,112
2013-07-08 18:55:18,39.0,10.1,28.9,32.6,2.4,111
2013-07-08 19:00:18,38.4,10.2,28.3,32.6,2.4,112
2013-07-08 19:05:18,37.9,8.9,29.1,32.6,2.4,111
2013-07-08 19:10:18,36.6,9.3,27.3,32.6,2.4,112
2013-07-08 19:15:18,36.8,9.2,27.6,32.6,2.4,111
2013-07-08 19:20:18,36.6,8.9,27.7,32.5,2.3,112
2013-07-08 19:25:18,36.4,8.7,27.7,32.5,2.3,111
2013-07-08 19:30:18,36.2,8.7,27.5,32.5,2.3,111
2013-07-08 19:35:18,36.0,8.3,27.7,32.5,2.3,112
2013-07-08 19:40:18,35.7,8.2,27.6,32.5,2.4,112
2013-07-08 19:45:18,35.5,7.8,27.6,32.5,2.8,111
2013-07-08 19:50:18,35.2,7.4,27.8,32.5,2.8,112
2013-07-08 19:55:18,34.8,7.4,27.4,32.5,2.7,111
2013-07-08 20:00:18,34.6,7.4,27.2,32.4,2.7,111
2013-07-08 20:05:18,34.4,6.9,27.5,32.4,2.5,112
2013-07-08 20:10:18,34.1,7.0,27.1,32.4,2.4,111
2013-07-08 20:15:18,33.8,6.2,27.5,32.3,2.3,112
2013-07-08 20:20:18,33.3,5.9,27.4,32.3,2.3,111
2013-07-08 20:25:18,32.8,5.7,27.1,32.2,2.0,112
2013-07-08 20:30:18,32.4,5.4,27.0,32.2,1.8,112
2013-07-08 20:35:18,32.1,5.2,26.9,32.1,1.7,111
2013-07-08 20:40:18,31.8,4.9,26.9,32.1,1.6,112
2013-07-08 20:45:18,31.5,4.6,26.9,32.0,1.4,112
2013-07-08 20:50:18,31.2,4.4,26.8,31.9,1.3,112
2013-07-08 20:55:18,31.0,4.3,26.7,31.8,1.3,111
2013-07-08 21:00:18,30.9,4.2,26.7,31.7,1.4,112
2013-07-08 21:05:18,30.7,3.9,26.8,31.5,1.5,112
2013-07-08 21:10:18,30.5,3.8,26.7,31.3,1.5,111
2013-07-08 21:15:18,30.3,3.6,26.7,30.8,1.6,112
2013-07-08 21:20:18,30.1,3.4,26.7,30.3,1.8,111
2013-07-08 21:25:18,29.9,3.3,26.7,29.4,2.3,111
2013-07-08 21:30:18,29.8,3.2,26.6,28.2,2.3,111
2013-07-08 21:35:18,29.7,3.0,26.7,26.5,2.3,111
2013-07-08 21:40:18,29.6,3.0,26.6,24.0,2.3,111
2013-07-08 21:45:18,29.5,2.9,26.6,20.6,2.3,112
2013-07-08 21:50:18,29.4,2.7,26.7,16.4,2.3,111
2013-07-08 21:55:18,29.3,2.5,26.8,12.1,2.3,111
2013-07-08 22:00:18,29.2,2.4,26.8,8.4,2.3,112
2013-07-08 22:05:18,29.1,2.2,26.8,5.6,2.3,111
2013-07-08 22:10:18,29.0,1.9,27.1,3.5,2.3,111
2013-07-08 22:15:18,29.2,1.7,27.5,2.2,2.3,111
2013-07-08 22:20:18,28.8,1.7,27.1,1.4,2.3,111
2013-07-08 22:25:18,28.8,1.6,27.2,0.9,2.3,111
2013-07-08 22:30:18,28.7,1.4,27.4,0.6,2.3,111
2013-07-08 22:35:18,28.6,1.4,27.2,0.3,2.3,111
2013-07-08 22:40:18,28.5,1.2,27.3,0.2,2.3,111
2013-07-08 22:45:18,28.4,1.2,27.2,0.1,2.3,111
2013-07-08 22:50:18,28.3,1.1,27.2,0.1,2.3,111
2013-07-08 22:55:18,28.2,1.0,27.2,0.0,2.3,111
2013-07-08 23:00:18,28.1,0.9,27.3,0.0,2.3,111
2013-07-08 23:05:18,28.1,1.0,27.1,0.0,2.3,111
2013-07-08 23:10:18,27.9,0.8,27.1,0.0,2.3,111
2013-07-08 23:15:18,27.8,0.7,27.1,0.0,2.4,111
2013-07-08 23:20:18,27.7,0.7,27.1,0.0,2.3,111
2013-07-08 23:25:18,27.2,0.4,26.7,0.0,2.3,111
2013-07-08 23:30:18,27.6,0.3,27.3,0.0,2.3,112
2013-07-08 23:35:18,27.5,0.2,27.3,0.0,2.3,111
2013-07-08 23:40:18,27.5,0.3,27.2,0.0,2.3,111
2013-07-08 23:45:18,27.5,0.2,27.3,0.0,2.3,112
2013-07-08 23:50:18,27.5,0.2,27.3,0.0,2.3,111
2013-07-08 23:55:18,27.4,0.0,27.3,0.0,2.3,112
